^^
Saratoga-Weather Station Historical Data
Daily Summary for May 6, 2020 Units:  English    Metric   Both
Daily Weekly Monthly Yearly Custom
  High: Low: Average:
Temperature: 68.5 °F 53.1 °F 61.9 °F
Dew Point: 63 °F 46.2 °F 49.5 °F
Humidity: 91% 46% 65%
Wind Speed: 21mph 0mph 5.2mph
Wind Gust: 21mph - -
Wind- - West
Pressure: 30.2 in 29.9 in -
Precipitation: 0 in    
Historical Graphs
 
 
Tabular Data for May 6, 2020
Time Temperature Dew Point Pressure Wind Wind Speed Wind Gust Humidity Rainfall Rate (Hourly) solar
00:02 65.8 °F 62.8 °F 29.9 in Calm   1 mph 90% 0 in 0 W/m2
00:07 65.7 °F 62.6 °F 29.9 in WNW 0.9 mph 1 mph 90% 0 in 0 W/m2
00:12 65.7 °F 62.6 °F 29.9 in Calm   1 mph 90% 0 in 0 W/m2
00:17 65.5 °F 62.4 °F 29.9 in WSW 2.9 mph 4 mph 90% 0 in 0 W/m2
00:27 65.5 °F 62.8 °F 29.9 in SW 2.9 mph 4 mph 91% 0 in 0 W/m2
00:32 65.7 °F 63 °F 29.9 in WSW 2 mph 8 mph 91% 0 in 0 W/m2
00:37 65.8 °F 62.8 °F 29.9 in NW 2 mph 7 mph 90% 0 in 0 W/m2
00:42 65.8 °F 62.8 °F 29.9 in West 2.9 mph 7 mph 90% 0 in 0 W/m2
00:47 65.8 °F 62.8 °F 29.9 in West 2.9 mph 11 mph 90% 0 in 0 W/m2
00:52 65.8 °F 62.4 °F 29.9 in West 6.9 mph 7 mph 89% 0 in 0 W/m2
00:57 65.8 °F 62.2 °F 29.9 in West 6.9 mph 14 mph 88% 0 in 0 W/m2
01:02 65.8 °F 62.2 °F 29.9 in West 2.9 mph 6 mph 88% 0 in 0 W/m2
01:08 65.7 °F 61.7 °F 29.9 in NNW 2.9 mph 14 mph 87% 0 in 0 W/m2
01:13 65.7 °F 61.3 °F 29.9 in West 6.9 mph 9 mph 86% 0 in 0 W/m2
01:23 65.5 °F 60.4 °F 29.9 in WNW 10.1 mph 11 mph 84% 0 in 0 W/m2
01:28 65.5 °F 59.9 °F 29.9 in SSW 2.9 mph 8 mph 82% 0 in 0 W/m2
01:33 65.1 °F 59.2 °F 29.9 in WNW 2.9 mph 11 mph 81% 0 in 0 W/m2
01:38 64.9 °F 58.3 °F 29.9 in NW 4 mph 12 mph 79% 0 in 0 W/m2
01:43 64.8 °F 57.4 °F 29.9 in WSW 8.9 mph 11 mph 77% 0 in 0 W/m2
01:48 64.6 °F 57.2 °F 29.9 in WSW 8.1 mph 14 mph 77% 0 in 0 W/m2
01:53 64.2 °F 56.8 °F 29.9 in West 6 mph 9 mph 77% 0 in 0 W/m2
01:58 63.9 °F 55.8 °F 29.9 in WNW 8.1 mph 14 mph 75% 0 in 0 W/m2
02:03 63.9 °F 55 °F 30 in WSW 21 mph 21 mph 73% 0 in 0 W/m2
02:08 63.5 °F 54.3 °F 29.9 in West 10.1 mph 17 mph 72% 0 in 0 W/m2
02:13 63.3 °F 54.1 °F 30 in West 11 mph 21 mph 72% 0 in 0 W/m2
02:18 63.1 °F 54 °F 29.9 in WSW 8.9 mph 11 mph 72% 0 in 0 W/m2
02:23 63 °F 53.8 °F 30 in WSW 4.9 mph 12 mph 72% 0 in 0 W/m2
02:28 62.8 °F 53.6 °F 30 in West 4 mph 11 mph 72% 0 in 0 W/m2
02:33 62.4 °F 52.9 °F 30 in WSW 11 mph 17 mph 71% 0 in 0 W/m2
02:38 62.2 °F 52.3 °F 30 in West 12.1 mph 14 mph 70% 0 in 0 W/m2
02:44 62.1 °F 52.2 °F 30 in WSW 8.1 mph 9 mph 70% 0 in 0 W/m2
02:49 61.7 °F 52.2 °F 30 in WNW 6.9 mph 10 mph 71% 0 in 0 W/m2
02:59 61.2 °F 52 °F 30 in WNW 8.1 mph 17 mph 72% 0 in 0 W/m2
03:04 60.8 °F 52.2 °F 30 in WNW 4 mph 11 mph 73% 0 in 0 W/m2
03:09 60.4 °F 52.2 °F 30 in WNW 8.1 mph 17 mph 74% 0 in 0 W/m2
03:14 60.3 °F 51.6 °F 30 in WNW 8.9 mph 12 mph 73% 0 in 0 W/m2
03:19 59.9 °F 50.9 °F 30 in WNW 8.1 mph 11 mph 72% 0 in 0 W/m2
03:24 59.5 °F 50.9 °F 30 in WSW 10.1 mph 12 mph 73% 0 in 0 W/m2
03:29 59.4 °F 50.7 °F 30 in NNW 4.9 mph 12 mph 73% 0 in 0 W/m2
03:34 59 °F 50 °F 30 in WNW 8.1 mph 10 mph 72% 0 in 0 W/m2
03:39 58.6 °F 50 °F 30 in WSW 8.9 mph 9 mph 73% 0 in 0 W/m2
03:44 58.3 °F 49.3 °F 30 in WSW 6.9 mph 12 mph 72% 0 in 0 W/m2
03:49 57.9 °F 48.9 °F 30 in West 4 mph 10 mph 72% 0 in 0 W/m2
03:54 57.6 °F 48.6 °F 30 in West 4 mph 14 mph 72% 0 in 0 W/m2
03:59 57.2 °F 48.2 °F 30 in WSW 4.9 mph 9 mph 72% 0 in 0 W/m2
04:04 56.8 °F 48.2 °F 30 in NW 4 mph 8 mph 73% 0 in 0 W/m2
04:09 56.5 °F 48 °F 30 in West 6.9 mph 8 mph 73% 0 in 0 W/m2
04:14 56.1 °F 48 °F 30 in WNW 2 mph 11 mph 74% 0 in 0 W/m2
04:19 55.9 °F 48.2 °F 30 in West 0.9 mph 4 mph 75% 0 in 0 W/m2
04:24 55.6 °F 47.8 °F 30 in WSW 2 mph 8 mph 75% 0 in 0 W/m2
04:30 55.2 °F 47.8 °F 30 in West 4 mph 6 mph 76% 0 in 0 W/m2
04:35 55 °F 47.7 °F 30 in West 8.1 mph 8 mph 76% 0 in 0 W/m2
04:40 54.9 °F 47.8 °F 30 in SW 4.9 mph 6 mph 77% 0 in 0 W/m2
04:45 54.7 °F 47.7 °F 30 in West 8.1 mph 11 mph 77% 0 in 0 W/m2
04:50 54.5 °F 47.5 °F 30 in West 6 mph 11 mph 77% 0 in 0 W/m2
04:55 54.5 °F 47.8 °F 30 in WNW 4 mph 9 mph 78% 0 in 0 W/m2
05:00 54.3 °F 47.7 °F 30 in WSW 4.9 mph 10 mph 78% 0 in 0 W/m2
05:05 54.3 °F 47.7 °F 30 in West 2.9 mph 8 mph 78% 0 in 0 W/m2
05:10 54.1 °F 47.5 °F 30 in West 2.9 mph 5 mph 78% 0 in 0 W/m2
05:15 54 °F 47.7 °F 30 in WNW 4 mph 7 mph 79% 0 in 0 W/m2
05:20 53.8 °F 47.5 °F 30 in NW 4 mph 4 mph 79% 0 in 0 W/m2
05:25 53.6 °F 47.7 °F 30 in West 0.9 mph 3 mph 80% 0 in 0 W/m2
05:30 53.4 °F 47.5 °F 30 in SW 4 mph 5 mph 80% 0 in 0 W/m2
05:35 53.4 °F 47.7 °F 30 in WNW 2.9 mph 8 mph 81% 0 in 0 W/m2
05:40 53.4 °F 47.7 °F 30 in West 6 mph 6 mph 81% 0 in 5 W/m2
05:45 53.4 °F 47.7 °F 30 in WNW 2 mph 5 mph 81% 0 in 5 W/m2
05:50 53.2 °F 47.5 °F 30 in West 4 mph 5 mph 81% 0 in 7 W/m2
05:55 53.1 °F 47.7 °F 30 in WNW 4 mph 7 mph 82% 0 in 9 W/m2
06:00 53.1 °F 47.7 °F 30 in WNW 2 mph 9 mph 82% 0 in 12 W/m2
06:05 53.1 °F 48 °F 30 in WNW 0.9 mph 7 mph 83% 0 in 14 W/m2
06:10 53.1 °F 48 °F 30 in WNW 2.9 mph 4 mph 83% 0 in 19 W/m2
06:15 53.2 °F 48.2 °F 30 in NW 2 mph 8 mph 83% 0 in 25 W/m2
06:20 53.2 °F 47.8 °F 30 in WNW 6.9 mph 7 mph 82% 0 in 21 W/m2
06:25 53.4 °F 48 °F 30 in WNW 4.9 mph 8 mph 82% 0 in 51 W/m2
06:30 53.8 °F 48.4 °F 30 in NNW 2.9 mph 4 mph 82% 0 in 47 W/m2
06:35 54 °F 48.6 °F 30 in WNW 2.9 mph 9 mph 82% 0 in 51 W/m2
06:40 54.1 °F 48.4 °F 30 in West 2 mph 4 mph 81% 0 in 37 W/m2
06:45 54.1 °F 48.4 °F 30 in West 9 mph 9 mph 81% 0 in 51 W/m2
06:50 54.3 °F 48.6 °F 30 in West 6 mph 6 mph 81% 0 in 60 W/m2
06:55 54.3 °F 48.6 °F 30 in West 0.9 mph 3 mph 81% 0 in 72 W/m2
07:00 54.3 °F 48.6 °F 30 in SW 2 mph 3 mph 81% 0 in 77 W/m2
07:05 54.3 °F 48.6 °F 30 in West 0.9 mph 5 mph 81% 0 in 69 W/m2
07:10 54.5 °F 48.7 °F 30 in WNW 2 mph 4 mph 81% 0 in 69 W/m2
07:15 54.7 °F 48.9 °F 30 in West 6 mph 8 mph 81% 0 in 77 W/m2
07:20 54.7 °F 48.9 °F 30 in West 0.9 mph 3 mph 81% 0 in 62 W/m2
07:25 54.9 °F 49.1 °F 30 in SW 4 mph 4 mph 81% 0 in 72 W/m2
07:30 55 °F 48.9 °F 30 in West 2.9 mph 6 mph 80% 0 in 51 W/m2
07:35 55 °F 48.9 °F 30 in WSW 2 mph 3 mph 80% 0 in 49 W/m2
07:40 55.2 °F 49.1 °F 30 in NW 0.9 mph 6 mph 80% 0 in 65 W/m2
07:45 55.6 °F 49.5 °F 30 in West 2 mph 4 mph 80% 0 in 74 W/m2
07:50 55.6 °F 49.1 °F 30 in West 2.9 mph 9 mph 79% 0 in 142 W/m2
07:55 55.8 °F 49.6 °F 30 in West 0.9 mph 5 mph 80% 0 in 86 W/m2
08:00 55.9 °F 49.8 °F 30 in NNW 2 mph 9 mph 80% 0 in 239 W/m2
08:05 56.3 °F 50.2 °F 30 in WSW 2.9 mph 8 mph 80% 0 in 373 W/m2
08:10 56.8 °F 50.4 °F 30 in NNW 4.9 mph 9 mph 79% 0 in 366 W/m2
08:15 57.4 °F 50.5 °F 30 in WSW 4 mph 5 mph 78% 0 in 362 W/m2
08:21 57.4 °F 50.2 °F 30 in West 8.1 mph 12 mph 77% 0 in 139 W/m2
08:26 57.2 °F 50 °F 30 in West 8.1 mph 9 mph 77% 0 in 153 W/m2
08:31 57.2 °F 50 °F 30 in NNW 8.9 mph 11 mph 77% 0 in 98 W/m2
08:36 57.4 °F 49.5 °F 30 in WNW 6.9 mph 10 mph 75% 0 in 118 W/m2
08:41 57.7 °F 49.8 °F 30 in WSW 8.9 mph 10 mph 75% 0 in 239 W/m2
08:46 57.7 °F 49.5 °F 30 in NW 4 mph 10 mph 74% 0 in 116 W/m2
08:51 57.6 °F 48.9 °F 30 in West 6.9 mph 11 mph 73% 0 in 76 W/m2
08:56 57.6 °F 48.9 °F 30 in NW 2.9 mph 4 mph 73% 0 in 172 W/m2
09:01 58.3 °F 50 °F 30 in West 2.9 mph 6 mph 74% 0 in 253 W/m2
09:06 58.6 °F 49.6 °F 30 in SW 6.9 mph 10 mph 72% 0 in 188 W/m2
09:11 57.9 °F 48.9 °F 30 in WSW 6 mph 10 mph 72% 0 in 128 W/m2
09:16 57.7 °F 48.7 °F 30 in West 8.1 mph 10 mph 72% 0 in 128 W/m2
09:21 57.4 °F 48.7 °F 30 in WSW 6.9 mph 13 mph 73% 0 in 146 W/m2
09:26 57.2 °F 48.9 °F 30 in West 2.9 mph 8 mph 74% 0 in 142 W/m2
09:31 57.7 °F 49.1 °F 30 in West 6.9 mph 13 mph 73% 0 in 179 W/m2
09:36 57.9 °F 48.2 °F 30 in WNW 8.1 mph 10 mph 70% 0 in 160 W/m2
09:41 58.1 °F 48.4 °F 30 in NNW 4 mph 7 mph 70% 0 in 443 W/m2
09:46 58.6 °F 48.6 °F 30 in West 6 mph 10 mph 69% 0 in 244 W/m2
09:51 59 °F 48.4 °F 30 in WSW 10.1 mph 11 mph 68% 0 in 338 W/m2
09:56 58.8 °F 47.8 °F 30 in NNW 4 mph 10 mph 67% 0 in 220 W/m2
10:01 59 °F 48.9 °F 30 in NW 4.9 mph 11 mph 69% 0 in 385 W/m2
10:06 59 °F 48.4 °F 30 in WNW 6.9 mph 14 mph 68% 0 in 308 W/m2
10:11 59.4 °F 48.7 °F 30 in WNW 4 mph 8 mph 68% 0 in 281 W/m2
10:16 59.4 °F 48.4 °F 30 in West 8.1 mph 9 mph 67% 0 in 262 W/m2
10:21 59.5 °F 48.9 °F 30 in West 4 mph 12 mph 68% 0 in 448 W/m2
10:26 59.5 °F 48.6 °F 30 in West 6.9 mph 10 mph 67% 0 in 265 W/m2
10:31 59.4 °F 49.1 °F 30 in WNW 8.1 mph 8 mph 69% 0 in 267 W/m2
10:36 59.4 °F 48.7 °F 30 in West 6 mph 10 mph 68% 0 in 554 W/m2
10:41 60.1 °F 49.5 °F 30 in WSW 2.9 mph 10 mph 68% 0 in 860 W/m2
10:46 60.3 °F 49.6 °F 30 in West 4 mph 10 mph 68% 0 in 343 W/m2
10:51 60.4 °F 48.6 °F 30.1 in NNW 8.9 mph 13 mph 65% 0 in 276 W/m2
10:56 60.6 °F 48.7 °F 30 in NW 13 mph 16 mph 65% 0 in 909 W/m2
11:01 60.6 °F 48.7 °F 30.1 in NE 2.9 mph 8 mph 65% 0 in 301 W/m2
11:06 60.3 °F 48 °F 30.1 in West 4 mph 16 mph 64% 0 in 211 W/m2
11:11 60.3 °F 48.4 °F 30.1 in West 4 mph 9 mph 65% 0 in 234 W/m2
11:16 61 °F 48.7 °F 30.1 in West 6.9 mph 17 mph 64% 0 in 1000 W/m2
11:21 61 °F 47.8 °F 30.1 in WNW 8.9 mph 11 mph 62% 0 in 218 W/m2
11:26 60.3 °F 48 °F 30.1 in West 6.9 mph 12 mph 64% 0 in 202 W/m2
11:31 59.7 °F 47.5 °F 30.1 in West 4 mph 9 mph 64% 0 in 211 W/m2
11:36 60.3 °F 47.7 °F 30.1 in NNW 4 mph 14 mph 63% 0 in 937 W/m2
11:41 61 °F 48.4 °F 30.1 in WNW 8.1 mph 10 mph 63% 0 in 867 W/m2
11:46 61.7 °F 48.2 °F 30.1 in NW 4.9 mph 14 mph 61% 0 in 886 W/m2
11:51 62.4 °F 48.7 °F 30 in West 8.1 mph 10 mph 61% 0 in 891 W/m2
11:56 63.1 °F 47.7 °F 30.1 in West 6 mph 12 mph 57% 0 in 865 W/m2
12:01 63.1 °F 47.7 °F 30.1 in SW 6 mph 11 mph 57% 0 in 853 W/m2
12:06 63.1 °F 46.2 °F 30.1 in WNW 2.9 mph 13 mph 54% 0 in 870 W/m2
12:11 63.9 °F 47.3 °F 30 in WNW 4 mph 9 mph 55% 0 in 937 W/m2
12:16 63.9 °F 46.9 °F 30.1 in WSW 8.9 mph 17 mph 54% 0 in 267 W/m2
12:21 63.1 °F 47.7 °F 30.1 in NW 4 mph 9 mph 57% 0 in 350 W/m2
12:26 63.7 °F 48.2 °F 30.1 in WNW 2.9 mph 11 mph 57% 0 in 566 W/m2
12:31 63.9 °F 47.8 °F 30.1 in WNW 4.9 mph 13 mph 56% 0 in 225 W/m2
12:36 63.9 °F 47.3 °F 30.1 in NW 6 mph 15 mph 55% 0 in 1055 W/m2
12:41 63.9 °F 48.7 °F 30.1 in SW 6 mph 10 mph 58% 0 in 1025 W/m2
12:46 64 °F 48 °F 30.1 in WNW 14.1 mph 16 mph 56% 0 in 1025 W/m2
12:51 63.9 °F 48.4 °F 30.1 in WSW 8.1 mph 9 mph 57% 0 in 946 W/m2
12:56 64.4 °F 49.3 °F 30.1 in West 11 mph 12 mph 58% 0 in 947 W/m2
13:01 64.9 °F 49.3 °F 30.1 in West 10.1 mph 10 mph 57% 0 in 977 W/m2
13:06 65.5 °F 48.4 °F 30.1 in West 4 mph 10 mph 54% 0 in 942 W/m2
13:11 66.2 °F 48.6 °F 30.1 in WNW 6.9 mph 9 mph 53% 0 in 1060 W/m2
13:16 66 °F 47.3 °F 30.1 in NW 11 mph 14 mph 51% 0 in 272 W/m2
13:21 65.8 °F 48.2 °F 30.1 in NNW 8.9 mph 10 mph 53% 0 in 436 W/m2
13:26 65.3 °F 47.3 °F 30.1 in WSW 10.1 mph 15 mph 52% 0 in 304 W/m2
13:31 65.3 °F 47.7 °F 30.1 in West 8.9 mph 12 mph 53% 0 in 461 W/m2
13:36 65.1 °F 47.5 °F 30.1 in WNW 8.1 mph 9 mph 53% 0 in 369 W/m2
13:41 66 °F 48.4 °F 30.1 in WNW 4.9 mph 12 mph 53% 0 in 1232 W/m2
13:46 66 °F 47.8 °F 30.1 in WNW 12.1 mph 14 mph 52% 0 in 1137 W/m2
13:51 65.8 °F 48.7 °F 30.1 in West 2.9 mph 7 mph 54% 0 in 1063 W/m2
13:56 66 °F 48.4 °F 30.1 in West 4 mph 8 mph 53% 0 in 977 W/m2
14:01 66.7 °F 47.5 °F 30.1 in WNW 6.9 mph 15 mph 50% 0 in 622 W/m2
14:06 66.9 °F 47.1 °F 30.1 in West 8.1 mph 13 mph 49% 0 in 1079 W/m2
14:11 67.3 °F 46.9 °F 30.1 in NNW 4 mph 9 mph 48% 0 in 1063 W/m2
14:16 67.5 °F 48.2 °F 30.1 in WNW 4.9 mph 13 mph 50% 0 in 953 W/m2
14:21 67.6 °F 48.4 °F 30.1 in NW 2.9 mph 12 mph 50% 0 in 1009 W/m2
14:26 67.5 °F 46.6 °F 30.1 in WSW 4 mph 10 mph 47% 0 in 1004 W/m2
14:31 67.5 °F 46.6 °F 30.1 in WSW 6.9 mph 10 mph 47% 0 in 1034 W/m2
14:37 67.8 °F 46.2 °F 30.1 in West 8.1 mph 8 mph 46% 0 in 1028 W/m2
14:42 68 °F 46.4 °F 30.1 in NNW 2.9 mph 14 mph 46% 0 in 283 W/m2
14:47 67.1 °F 47.3 °F 30.1 in WNW 10.1 mph 10 mph 49% 0 in 297 W/m2
14:52 66.4 °F 46.6 °F 30.1 in WNW 2.9 mph 10 mph 49% 0 in 295 W/m2
14:57 66.2 °F 46.9 °F 30.1 in NW 4.9 mph 12 mph 50% 0 in 223 W/m2
15:02 66 °F 47.3 °F 30.1 in NNW 6 mph 11 mph 51% 0 in 185 W/m2
15:07 65.7 °F 47.5 °F 30.1 in West 2.9 mph 10 mph 52% 0 in 181 W/m2
15:12 65.5 °F 47.5 °F 30.1 in WNW 4.9 mph 10 mph 52% 0 in 165 W/m2
15:17 65.1 °F 48 °F 30.1 in West 6 mph 13 mph 54% 0 in 179 W/m2
15:22 65.5 °F 48.4 °F 30.1 in NNW 8.1 mph 10 mph 54% 0 in 434 W/m2
15:27 65.8 °F 48.7 °F 30.1 in West 8.9 mph 10 mph 54% 0 in 346 W/m2
15:32 66.7 °F 49.1 °F 30.1 in West 4 mph 10 mph 53% 0 in 561 W/m2
15:37 66.7 °F 49.1 °F 30.1 in West 6 mph 10 mph 53% 0 in 399 W/m2
15:42 66.6 °F 48.9 °F 30.1 in WNW 6.9 mph 10 mph 53% 0 in 397 W/m2
15:47 66.7 °F 48.6 °F 30.1 in WNW 10.1 mph 18 mph 52% 0 in 519 W/m2
15:52 66.4 °F 49.3 °F 30.1 in West 8.9 mph 9 mph 54% 0 in 369 W/m2
15:57 66.6 °F 48.9 °F 30.1 in WSW 14.1 mph 14 mph 53% 0 in 345 W/m2
16:03 66 °F 48.9 °F 30.1 in West 6 mph 9 mph 54% 0 in 281 W/m2
16:08 65.8 °F 49.3 °F 30.1 in SSW 4.9 mph 9 mph 55% 0 in 424 W/m2
16:13 65.7 °F 49.1 °F 30.1 in West 6 mph 8 mph 55% 0 in 311 W/m2
16:18 66 °F 47.8 °F 30.1 in West 2 mph 11 mph 52% 0 in 830 W/m2
16:23 67.1 °F 48.9 °F 30.1 in WNW 4.9 mph 8 mph 52% 0 in 777 W/m2
16:28 67.6 °F 48.4 °F 30.1 in NW 13 mph 13 mph 50% 0 in 765 W/m2
16:33 68 °F 48.7 °F 30.1 in WSW 8.1 mph 10 mph 50% 0 in 758 W/m2
16:38 68 °F 48.2 °F 30.1 in West 8.1 mph 14 mph 49% 0 in 724 W/m2
16:43 67.6 °F 48.4 °F 30.1 in West 8.9 mph 10 mph 50% 0 in 158 W/m2
16:48 67.5 °F 47.7 °F 30.1 in NNW 4.9 mph 12 mph 49% 0 in 795 W/m2
16:53 67.6 °F 48.4 °F 30.1 in NNW 8.1 mph 11 mph 50% 0 in 258 W/m2
16:58 66.9 °F 47.7 °F 30.1 in West 8.1 mph 14 mph 50% 0 in 250 W/m2
17:03 66.6 °F 47.8 °F 30.1 in WSW 12.1 mph 16 mph 51% 0 in 339 W/m2
17:13 67.3 °F 49.6 °F 30.1 in WSW 4.9 mph 16 mph 53% 0 in 390 W/m2
17:18 67.6 °F 47.8 °F 30.1 in West 8.1 mph 17 mph 49% 0 in 679 W/m2
17:23 68.2 °F 47.7 °F 30.1 in WNW 8.1 mph 12 mph 48% 0 in 636 W/m2
17:28 68.2 °F 48.4 °F 30.1 in WSW 8.9 mph 11 mph 49% 0 in 628 W/m2
17:33 68.5 °F 47.5 °F 30.1 in West 6.9 mph 19 mph 47% 0 in 615 W/m2
17:38 68.4 °F 47.8 °F 30.1 in NW 10.1 mph 12 mph 48% 0 in 626 W/m2
17:43 68.2 °F 48.4 °F 30.1 in West 8.1 mph 16 mph 49% 0 in 617 W/m2
17:49 68.4 °F 47.8 °F 30.1 in West 8.9 mph 11 mph 48% 0 in 489 W/m2
17:54 67.8 °F 48.6 °F 30.1 in West 8.1 mph 14 mph 50% 0 in 229 W/m2
17:59 67.5 °F 48.2 °F 30.1 in WNW 6.9 mph 13 mph 50% 0 in 207 W/m2
18:04 66.9 °F 48.2 °F 30.1 in West 2.9 mph 14 mph 51% 0 in 144 W/m2
18:09 67.5 °F 48.7 °F 30.1 in WNW 10.1 mph 12 mph 51% 0 in 566 W/m2
18:14 67.6 °F 48.9 °F 30.1 in West 8.1 mph 11 mph 51% 0 in 571 W/m2
18:19 68.2 °F 49.3 °F 30.1 in WSW 4.9 mph 7 mph 51% 0 in 367 W/m2
18:24 68.5 °F 49.1 °F 30.1 in WNW 4.9 mph 12 mph 50% 0 in 506 W/m2
18:29 68.5 °F 48.6 °F 30.1 in West 6.9 mph 11 mph 49% 0 in 160 W/m2
18:34 68.4 °F 47.3 °F 30.1 in West 6.9 mph 10 mph 47% 0 in 420 W/m2
18:39 68.2 °F 47.1 °F 30.1 in WNW 6 mph 9 mph 47% 0 in 301 W/m2
18:44 67.6 °F 47.3 °F 30.1 in NNW 4 mph 12 mph 48% 0 in 155 W/m2
18:49 67.3 °F 47.5 °F 30.1 in WNW 6.9 mph 8 mph 49% 0 in 125 W/m2
18:54 66.7 °F 46.9 °F 30.1 in WNW 2.9 mph 7 mph 49% 0 in 141 W/m2
18:59 66.7 °F 47.5 °F 30.1 in WNW 2 mph 8 mph 50% 0 in 132 W/m2
19:04 66.6 °F 47.8 °F 30.1 in West 0.9 mph 4 mph 51% 0 in 127 W/m2
19:09 66.9 °F 47.7 °F 30.1 in NNW 2.9 mph 6 mph 50% 0 in 149 W/m2
19:14 66.9 °F 46.6 °F 30.1 in West 8.1 mph 12 mph 48% 0 in 125 W/m2
19:19 66.9 °F 47.1 °F 30.1 in WNW 4.9 mph 7 mph 49% 0 in 95 W/m2
19:24 67.1 °F 47.3 °F 30.1 in WSW 4.9 mph 12 mph 49% 0 in 343 W/m2
19:29 67.5 °F 47.1 °F 30.1 in West 6 mph 10 mph 48% 0 in 325 W/m2
19:34 66.9 °F 46.6 °F 30.1 in West 4 mph 8 mph 48% 0 in 49 W/m2
19:39 66.4 °F 46.6 °F 30.1 in West 4 mph 8 mph 49% 0 in 53 W/m2
19:44 66 °F 46.8 °F 30.1 in NW 2 mph 7 mph 50% 0 in 44 W/m2
19:49 65.7 °F 47.1 °F 30.1 in West 4 mph 6 mph 51% 0 in 56 W/m2
19:54 65.7 °F 47.5 °F 30.1 in WNW 2 mph 8 mph 52% 0 in 83 W/m2
20:00 65.7 °F 47.5 °F 30.1 in West 6 mph 6 mph 52% 0 in 79 W/m2
20:05 65.7 °F 48 °F 30.1 in West 4 mph 8 mph 53% 0 in 81 W/m2
20:10 65.7 °F 47.5 °F 30.1 in WNW 4 mph 7 mph 52% 0 in 77 W/m2
20:15 65.7 °F 48 °F 30.1 in WNW 2.9 mph 6 mph 53% 0 in 49 W/m2
20:20 65.5 °F 47.8 °F 30.1 in WNW 2.9 mph 4 mph 53% 0 in 46 W/m2
20:25 65.3 °F 48.2 °F 30.1 in West 4 mph 5 mph 54% 0 in 39 W/m2
20:30 64.9 °F 47.8 °F 30.1 in WSW 4 mph 6 mph 54% 0 in 54 W/m2
20:35 65.1 °F 48 °F 30.1 in WNW 4 mph 7 mph 54% 0 in 95 W/m2
20:40 65.5 °F 48.4 °F 30.1 in WNW 6 mph 6 mph 54% 0 in 86 W/m2
20:45 65.7 °F 48.6 °F 30.1 in West 6 mph 6 mph 54% 0 in 77 W/m2
20:50 65.5 °F 48.4 °F 30.1 in WSW 2 mph 6 mph 54% 0 in 76 W/m2
20:55 65.5 °F 48.4 °F 30.1 in West 6 mph 6 mph 54% 0 in 51 W/m2
21:00 64.9 °F 47.8 °F 30.1 in WNW 2.9 mph 7 mph 54% 0 in 35 W/m2
21:05 64.6 °F 48 °F 30.1 in WSW 2 mph 5 mph 55% 0 in 32 W/m2
21:10 64.2 °F 47.7 °F 30.1 in SW 6 mph 9 mph 55% 0 in 25 W/m2
21:15 64 °F 48 °F 30.1 in WNW 2.9 mph 4 mph 56% 0 in 19 W/m2
21:20 63.9 °F 48.4 °F 30.1 in West 2.9 mph 8 mph 57% 0 in 16 W/m2
21:25 63.7 °F 48.2 °F 30.1 in West 4 mph 6 mph 57% 0 in 12 W/m2
21:30 63.3 °F 47.8 °F 30.1 in West 2 mph 3 mph 57% 0 in 9 W/m2
21:35 63.1 °F 47.7 °F 30.1 in West 2 mph 4 mph 57% 0 in 7 W/m2
21:40 63 °F 48 °F 30.1 in West 2.9 mph 4 mph 58% 0 in 5 W/m2
21:46 62.6 °F 47.7 °F 30.1 in WSW 2 mph 3 mph 58% 0 in 0 W/m2
21:51 62.2 °F 47.7 °F 30.1 in West 2.9 mph 3 mph 59% 0 in 0 W/m2
21:56 62.1 °F 47.5 °F 30.1 in West 0.9 mph 6 mph 59% 0 in 0 W/m2
22:01 61.7 °F 47.7 °F 30.1 in West 2 mph 4 mph 60% 0 in 0 W/m2
22:06 61.3 °F 47.8 °F 30.1 in WSW 0.9 mph 6 mph 61% 0 in 0 W/m2
22:11 61.2 °F 48 °F 30.1 in West 0.9 mph 3 mph 62% 0 in 0 W/m2
22:16 60.8 °F 47.7 °F 30.1 in WNW 2 mph 4 mph 62% 0 in 0 W/m2
22:21 60.6 °F 48 °F 30.1 in WSW 2 mph 6 mph 63% 0 in 0 W/m2
22:26 60.4 °F 47.8 °F 30.2 in WSW 2.9 mph 4 mph 63% 0 in 0 W/m2
22:31 60.3 °F 47.7 °F 30.2 in West 0.9 mph 2 mph 63% 0 in 0 W/m2
22:36 60.3 °F 48 °F 30.2 in West 2.9 mph 3 mph 64% 0 in 0 W/m2
22:41 60.1 °F 47.8 °F 30.2 in West 2.9 mph 4 mph 64% 0 in 0 W/m2
22:46 59.9 °F 47.7 °F 30.2 in West 0.9 mph 3 mph 64% 0 in 0 W/m2
22:52 59.7 °F 47.5 °F 30.2 in WSW 2.9 mph 3 mph 64% 0 in 0 W/m2
22:57 59.5 °F 47.8 °F 30.2 in Calm   2 mph 65% 0 in 0 W/m2
23:02 59.5 °F 47.8 °F 30.2 in WSW 0.9 mph 2 mph 65% 0 in 0 W/m2
23:07 59.4 °F 47.7 °F 30.2 in West 2.9 mph 3 mph 65% 0 in 0 W/m2
23:12 59.2 °F 47.5 °F 30.2 in WSW 2 mph 4 mph 65% 0 in 0 W/m2
23:17 59 °F 47.7 °F 30.2 in WNW 2 mph 3 mph 66% 0 in 0 W/m2
23:22 58.8 °F 47.5 °F 30.2 in West 2 mph 3 mph 66% 0 in 0 W/m2
23:27 58.8 °F 47.5 °F 30.2 in West 2 mph 4 mph 66% 0 in 0 W/m2
23:32 58.6 °F 47.3 °F 30.2 in WSW 2 mph 2 mph 66% 0 in 0 W/m2
23:37 58.5 °F 47.5 °F 30.2 in WSW 0.9 mph 2 mph 67% 0 in 0 W/m2
23:42 58.3 °F 47.3 °F 30.2 in WSW 0.9 mph 1 mph 67% 0 in 0 W/m2
23:47 57.7 °F 47.3 °F 30.2 in Calm   2 mph 68% 0 in 0 W/m2
23:52 57.6 °F 47.1 °F 30.2 in Calm   1 mph 68% 0 in 0 W/m2
23:57 57.4 °F 47.3 °F 30.2 in Calm     69% 0 in 0 W/m2
Juneau County Weather
Compliments of Weather Underground - 4 mb